Simultaneous Nadir Overpasses (SNOs) Predictions

Prediction of SNOs between METOP-A and TERRA Satellite Orbit:

Table of predicted SNOs for the next 14.0 days since TLE Epoch: 12/11/2016
Index Date (METOP-A) Time (METOP-A) Lat,Lon (METOP-A) SZA (METOP-A ) Date (TERRA) Time (TERRA) Lat,Lon (TERRA) SZA (TERRA ) Distance(km) Time Diff (sec)
1 12/13/2016 08:50:31 -81.30, -85.36 72.74 12/13/2016 08:50:46 -81.30, -85.42 72.74 1.15 15
2 12/13/2016 09:41:10 81.31, 82.51 107.33 12/13/2016 09:40:12 81.31, 82.34 107.29 2.78 58
3 12/16/2016 04:24:55 -81.30, -19.09 72.65 12/16/2016 04:25:01 -81.30, -18.99 72.63 1.72 6
4 12/16/2016 05:15:34 81.31, 148.75 107.42 12/16/2016 05:14:27 81.31, 148.76 107.39 0.19 67
5 12/18/2016 23:08:38 81.30,-120.32 107.37 12/18/2016 23:09:49 81.31,-120.16 107.42 2.83 71
6 12
